Other Public Products
Issued by NWS Charleston, SC

Current Version | Previous Version | Graphics & Text | Print | Product List | Glossary On
Versions: 1 2 3 4 5 6 7 8 9 10 11 12 13 14 15 16 17 18 19 20 21 22 23 24 25 26 27 28 29 30 31 32 33 34 35 36 37 38 39 40 41 42 43 44 45 46 47 48 49 50
991
FPUS82 KCHS 231012
OPUCHS

TEST...KCHS/KSAV Gateway Observations...TEST
National Weather Service Charleston SC
600 AM EDT SUN JUL 23 2017

NOTE: "fair" indicates few or no clouds below 12,000 feet with no
significant weather and/or obstructions to visibility.

SCZ050-WAZ558-NCZ071-TXZ119-213-PAZ071-DCZ001-FLZ074-172-MI076-
NYZ176-178-MAZ016-IL014-TNZ027-NJZ106-GAZ044-MD014-231100-

...Gateway Observations for Charleston International...

CITY           SKY/WX    TMP DP  RH WIND       PRES   REMARKS
Chas Airport   PTCLDY    77  74  90 SW7       29.94R
Seattle        PTCLDY    64  58  80 N10       30.08F
Charlotte      PTCLDY    78  72  81 SW3       29.89S
Dallas DFW     PTCLDY    82  73  74 S10       29.85S
Dallas Love    PTCLDY    82  72  71 S9        29.86S
Philladelphia  CLOUDY    78  70  76 W10       29.75S
Wash National  MOCLDY    75  75 100 CALM      29.77F
Baltimore      MOCLDY    73  73 100 W5        29.76S FOG
Miami          MOCLDY    83  75  77 VRB3      30.02R HX  90
Detroit        MOCLDY    70  65  84 NW6       29.79R
Newark         CLOUDY    71  70  96 CALM      29.75S
Laguardia      CLOUDY    74  71  91 S5        29.75R
J F K          CLOUDY    72  71  97 CALM      29.76R
Boston Logan   MOCLDY    68  56  65 NE17      29.79R
Ft. Lauderdale MOCLDY    83  76  79 SE6       30.01R HX  91
Chicago O`Hare PTCLDY    71  68  90 CALM      29.78S
Chicago Midway CLOUDY    74  70  87 SW5       29.78S
Houston Bush   PTCLDY    80  76  87 S3        29.90F
Houston Hobby  PTCLDY    80  75  84 S3        29.90F
Nashville      CLEAR     80  69  69 SW7       29.90S
Atlanta        PTCLDY    75  73  93 SW5       29.96S

$$

GAZ044-118-TXZ119-213-NCZ071-DCZ001-MDZ014-506-PAZ021-071-NJZ106-
NYZ176-178-MAZ106-OHZ011-021-055-MIZ076-KYZ091-ILZ014-INZ047-
MNZ060-ONZ431-231100-

...Gateway Observations for Savannah International...

CITY           SKY/WX    TMP DP  RH WIND       PRES   REMARKS
Savannah Arpt  MOCLDY    75  74  96 SW6       29.97R
Atlanta        PTCLDY    75  73  93 SW5       29.96S
Charlotte      PTCLDY    78  72  81 SW3       29.89S
Dallas DFW     PTCLDY    82  73  74 S10       29.85S
Houston Bush   PTCLDY    80  76  87 S3        29.90F
Wash National  MOCLDY    75  75 100 CALM      29.77F
Wash Dulles    CLOUDY    72  71  97 CALM      29.78S FOG
Baltimore      MOCLDY    73  73 100 W5        29.76S FOG
Philadelphia   CLOUDY    78  70  76 W10       29.75S
Newark         CLOUDY    71  70  96 CALM      29.75S
Laguardia      CLOUDY    74  71  91 S5        29.75R
J F K          CLOUDY    72  71  97 CALM      29.76R
Boston         MOCLDY    68  56  65 NE17      29.79R
Pittsburg      CLOUDY    73  72  96 SW5       29.80S FOG
Akron          CLOUDY    72  68  87 SW5       29.80S
Cleveland      CLOUDY    74  71  91 W5        29.79R
Cincinnati     CLOUDY    73  73 100 SW8       29.84F
Columbus       CLOUDY    72  72 100 CALM      29.80R
Detroit        MOCLDY    70  65  84 NW6       29.79R
Chicago O`Hare PTCLDY    71  68  90 CALM      29.78S
Minneapolis    MOCLDY    71  55  56 NW9       29.85R
Indianapolis   MOCLDY    71  68  90 SW7       29.78F
Toronto Canada MOCLDY    70  66  88 NE3       29.77R

$$




USA.gov is the U.S. government's official web portal to all federal, state and local government web resources and services.